�������l�o���
Date,Time,MP-1(��Sv/h),MP-2(��Sv/h),MP-3(��Sv/h),MP-4(��Sv/h),MP-5(��Sv/h),MP-6(��Sv/h),MP-7(��Sv/h),MP-8(��Sv/h),����,����(m/s),���J
2021/06/03,00:00,0.634,0.943,0.592,1.141,0.821,0.374,0.651,0.607,��,7.3,��
2021/06/03,00:10,0.632,0.942,0.591,1.140,0.820,0.376,0.652,0.607,��쐼,6.9,��
2021/06/03,00:20,0.634,0.944,0.592,1.138,0.820,0.375,0.650,0.607,��쐼,6.8,��
2021/06/03,00:30,0.632,0.942,0.592,1.140,0.821,0.374,0.649,0.608,��쐼,7.1,��
2021/06/03,00:40,0.633,0.944,0.592,1.140,0.820,0.374,0.650,0.606,��쐼,7.6,��
2021/06/03,00:50,0.634,0.942,0.591,1.139,0.820,0.374,0.651,0.607,��쐼,7.1,��
2021/06/03,01:00,0.633,0.941,0.591,1.141,0.820,0.375,0.653,0.607,��,6.8,��
2021/06/03,01:10,0.631,0.943,0.591,1.142,0.820,0.375,0.650,0.606,��쐼,6.6,��
2021/06/03,01:20,0.633,0.939,0.592,1.142,0.820,0.375,0.650,0.606,��쐼,5.9,��
2021/06/03,01:30,0.634,0.940,0.592,1.141,0.818,0.373,0.650,0.609,��쐼,5.4,��
2021/06/03,01:40,0.631,0.942,0.592,1.139,0.820,0.374,0.650,0.608,��쐼,5.2,��
2021/06/03,01:50,0.633,0.942,0.590,1.141,0.819,0.375,0.651,0.609,��,5.4,��
2021/06/03,02:00,0.633,0.940,0.592,1.140,0.820,0.375,0.650,0.606,��,5.4,��
2021/06/03,02:10,0.633,0.942,0.590,1.142,0.820,0.375,0.650,0.606,��,6.0,��
2021/06/03,02:20,0.633,0.940,0.591,1.140,0.820,0.375,0.652,0.608,��,6.8,��
2021/06/03,02:30,0.633,0.941,0.591,1.141,0.819,0.373,0.650,0.607,��,6.6,��
2021/06/03,02:40,0.634,0.939,0.591,1.139,0.820,0.375,0.650,0.607,��,5.8,��
2021/06/03,02:50,0.634,0.940,0.590,1.140,0.819,0.375,0.650,0.608,��,5.5,��
2021/06/03,03:00,0.633,0.941,0.591,1.141,0.821,0.375,0.650,0.606,��,5.4,��
2021/06/03,03:10,0.633,0.941,0.589,1.139,0.821,0.374,0.651,0.607,��,5.6,��
2021/06/03,03:20,0.632,0.938,0.592,1.141,0.820,0.373,0.652,0.607,��,5.3,��
2021/06/03,03:30,0.632,0.939,0.590,1.139,0.819,0.374,0.650,0.608,��,5.8,��
2021/06/03,03:40,0.634,0.940,0.590,1.141,0.821,0.373,0.650,0.608,��,6.1,��
2021/06/03,03:50,0.632,0.940,0.590,1.141,0.820,0.374,0.652,0.607,��,6.0,��
2021/06/03,04:00,0.633,0.941,0.591,1.138,0.819,0.374,0.652,0.608,��,6.0,��
2021/06/03,04:10,0.632,0.939,0.592,1.138,0.820,0.373,0.650,0.608,��,6.6,��
2021/06/03,04:20,0.633,0.942,0.591,1.139,0.820,0.375,0.650,0.608,��,6.6,��
2021/06/03,04:30,0.630,0.939,0.592,1.142,0.819,0.375,0.650,0.607,��,6.4,��
2021/06/03,04:40,0.632,0.939,0.592,1.140,0.818,0.375,0.651,0.607,��,5.9,��
2021/06/03,04:50,0.633,0.940,0.590,1.144,0.820,0.375,0.650,0.606,��,5.9,��
2021/06/03,05:00,0.634,0.939,0.589,1.140,0.817,0.374,0.651,0.606,��,6.0,��
2021/06/03,05:10,0.632,0.938,0.592,1.140,0.819,0.374,0.651,0.607,��,6.9,��
2021/06/03,05:20,0.633,0.939,0.592,1.141,0.819,0.373,0.651,0.605,��,8.2,��
2021/06/03,05:30,0.635,0.942,0.591,1.140,0.819,0.374,0.650,0.607,��,7.5,��
2021/06/03,05:40,0.633,0.939,0.592,1.141,0.817,0.373,0.651,0.607,��쐼,6.9,��
2021/06/03,05:50,0.633,0.939,0.591,1.139,0.819,0.375,0.652,0.607,��,7.0,��
2021/06/03,06:00,0.632,0.941,0.590,1.141,0.816,0.374,0.653,0.607,��,6.6,��
2021/06/03,06:10,0.631,0.941,0.591,1.139,0.819,0.375,0.650,0.607,��,6.6,��
2021/06/03,06:20,0.632,0.940,0.590,1.138,0.818,0.374,0.651,0.608,��,5.7,��
2021/06/03,06:30,0.631,0.938,0.590,1.141,0.816,0.373,0.651,0.607,��,5.1,��
2021/06/03,06:40,0.632,0.936,0.590,1.139,0.819,0.372,0.653,0.609,��,4.5,��
2021/06/03,06:50,0.633,0.937,0.592,1.140,0.818,0.373,0.651,0.608,��,4.7,��
2021/06/03,07:00,0.633,0.937,0.590,1.139,0.817,0.370,0.650,0.609,��,5.2,��
2021/06/03,07:10,0.631,0.938,0.591,1.139,0.818,0.372,0.652,0.608,��,6.1,��
2021/06/03,07:20,0.633,0.940,0.591,1.138,0.819,0.373,0.652,0.608,��,6.0,��
2021/06/03,07:30,0.631,0.938,0.592,1.142,0.820,0.373,0.650,0.608,��,6.1,��
2021/06/03,07:40,0.630,0.939,0.592,1.144,0.817,0.373,0.650,0.607,��,7.6,��
2021/06/03,07:50,0.630,0.941,0.591,1.142,0.820,0.374,0.650,0.605,��,9.6,��
2021/06/03,08:00,0.630,0.939,0.591,1.141,0.819,0.373,0.649,0.605,��,9.4,��
2021/06/03,08:10,0.632,0.938,0.591,1.141,0.819,0.372,0.650,0.605,��,9.1,��
2021/06/03,08:20,0.629,0.940,0.592,1.142,0.818,0.371,0.649,0.606,��쓌,11.6,��
2021/06/03,08:30,0.632,0.937,0.590,1.142,0.819,0.373,0.650,0.605,��쓌,12.4,��
2021/06/03,08:40,0.632,0.937,0.591,1.142,0.819,0.372,0.649,0.606,��쓌,11.9,��
2021/06/03,08:50,0.632,0.938,0.592,1.144,0.819,0.373,0.649,0.605,��,10.8,��
2021/06/03,09:00,0.634,0.936,0.590,1.142,0.819,0.374,0.650,0.607,��쓌,11.7,��
2021/06/03,09:10,0.633,0.939,0.591,1.139,0.818,0.373,0.649,0.606,��쓌,11.1,��
2021/06/03,09:20,0.632,0.936,0.590,1.141,0.818,0.375,0.650,0.606,��쓌,11.8,��
2021/06/03,09:30,0.632,0.936,0.591,1.143,0.818,0.376,0.650,0.605,��쓌,13.6,��
2021/06/03,09:40,0.630,0.935,0.590,1.141,0.819,0.375,0.652,0.605,��쓌,14.9,��
2021/06/03,09:50,0.631,0.936,0.589,1.142,0.818,0.375,0.651,0.607,��쓌,14.4,��
2021/06/03,10:00,0.632,0.936,0.587,1.141,0.819,0.375,0.649,0.606,��쓌,13.3,��
2021/06/03,10:10,0.633,0.938,0.588,1.142,0.820,0.375,0.650,0.607,��쓌,14.6,��
2021/06/03,10:20,0.633,0.937,0.591,1.142,0.819,0.376,0.651,0.606,��쓌,13.9,��
2021/06/03,10:30,0.633,0.938,0.589,1.140,0.818,0.376,0.650,0.606,��쓌,13.8,��
2021/06/03,10:40,0.633,0.940,0.592,1.143,0.820,0.375,0.650,0.606,��쓌,15.8,��
2021/06/03,10:50,0.632,0.938,0.592,1.143,0.820,0.376,0.651,0.605,��쓌,15.3,��
2021/06/03,11:00,0.634,0.939,0.589,1.142,0.822,0.375,0.651,0.606,��쓌,15.8,��
2021/06/03,11:10,0.632,0.939,0.591,1.140,0.821,0.377,0.650,0.605,��쓌,15.3,��
2021/06/03,11:20,0.634,0.938,0.590,1.141,0.820,0.377,0.651,0.605,��쓌,16.9,��
2021/06/03,11:30,0.633,0.939,0.592,1.141,0.822,0.377,0.650,0.606,��쓌,14.4,��
2021/06/03,11:40,0.632,0.940,0.592,1.141,0.821,0.375,0.650,0.607,��쓌,13.8,��
2021/06/03,11:50,0.633,0.941,0.592,1.141,0.822,0.376,0.650,0.607,��쓌,12.8,��
2021/06/03,12:00,0.634,0.939,0.592,1.142,0.823,0.377,0.651,0.607,��쓌,12.5,��
2021/06/03,12:10,0.634,0.942,0.590,1.142,0.822,0.376,0.651,0.606,��쓌,15.5,��
2021/06/03,12:20,0.634,0.943,0.591,1.143,0.822,0.376,0.649,0.607,��쓌,15.3,��
2021/06/03,12:30,0.633,0.940,0.592,1.143,0.821,0.377,0.650,0.606,��쓌,15.5,��
2021/06/03,12:40,0.635,0.942,0.592,1.142,0.823,0.376,0.650,0.607,��쓌,16.6,��
2021/06/03,12:50,0.634,0.941,0.593,1.143,0.823,0.377,0.653,0.606,��쓌,14.1,��
2021/06/03,13:00,0.634,0.943,0.592,1.143,0.823,0.378,0.651,0.609,��쓌,16.6,��
2021/06/03,13:10,0.634,0.943,0.590,1.143,0.824,0.375,0.651,0.608,-,-,��
2021/06/03,13:20,0.635,0.941,0.590,1.142,0.822,0.377,0.651,0.608,-,-,-
2021/06/03,13:30,0.636,0.938,0.591,1.141,0.824,0.376,0.652,0.608,-,-,-
2021/06/03,13:40,0.634,0.939,0.592,1.144,0.822,0.378,0.653,0.607,-,-,-
2021/06/03,13:50,0.633,0.942,0.594,1.145,0.824,0.376,0.652,0.608,-,-,-
2021/06/03,14:00,0.635,0.943,0.592,1.146,0.824,0.377,0.649,0.607,-,-,-
2021/06/03,14:10,0.635,0.942,0.592,1.142,0.824,0.378,0.651,0.607,-,-,-
2021/06/03,14:20,0.634,0.941,0.593,1.144,0.825,0.377,0.652,0.607,-,-,-
2021/06/03,14:30,0.636,0.942,0.592,1.144,0.826,0.378,0.650,0.606,-,-,-
2021/06/03,14:40,0.635,0.943,0.592,1.144,0.826,0.378,0.652,0.606,-,-,-
2021/06/03,14:50,0.633,0.942,0.593,1.145,0.826,0.376,0.651,0.607,-,-,-
2021/06/03,15:00,0.637,0.942,0.591,1.145,0.825,0.378,0.652,0.608,-,-,-
2021/06/03,15:10,0.636,0.942,0.592,1.143,0.826,0.376,0.653,0.609,-,-,-
2021/06/03,15:20,0.633,0.943,0.593,1.146,0.827,0.377,0.650,0.608,-,-,-
2021/06/03,15:30,0.635,0.945,0.593,1.142,0.824,0.377,0.652,0.608,-,-,-
2021/06/03,15:40,0.634,0.943,0.593,1.142,0.825,0.378,0.650,0.609,��쓌,12.7,��
2021/06/03,15:50,0.634,0.943,0.594,1.146,0.825,0.379,0.651,0.607,��쓌,11.4,��
2021/06/03,16:00,0.635,0.945,0.594,1.143,0.825,0.378,0.650,0.609,��,10.9,��
2021/06/03,16:10,0.635,0.945,0.594,1.145,0.824,0.377,0.652,0.607,��쓌,13.8,��
2021/06/03,16:20,0.636,0.946,0.593,1.144,0.825,0.377,0.651,0.608,��,11.8,��
2021/06/03,16:30,0.636,0.944,0.593,1.148,0.825,0.376,0.650,0.608,��,12.5,��
2021/06/03,16:40,0.635,0.942,0.593,1.146,0.826,0.378,0.651,0.608,��,11.1,��
2021/06/03,16:50,0.636,0.942,0.594,1.143,0.826,0.378,0.651,0.607,��,12.4,��
2021/06/03,17:00,0.635,0.944,0.592,1.145,0.824,0.377,0.649,0.608,��,11.7,��
2021/06/03,17:10,0.634,0.944,0.592,1.145,0.825,0.376,0.651,0.607,��,10.0,��
2021/06/03,17:20,0.635,0.942,0.591,1.145,0.825,0.376,0.649,0.608,��,11.1,��
2021/06/03,17:30,0.636,0.943,0.591,1.148,0.825,0.377,0.651,0.607,��,9.6,��
2021/06/03,17:40,0.635,0.940,0.591,1.149,0.825,0.376,0.652,0.607,��,9.2,��
2021/06/03,17:50,0.634,0.943,0.593,1.149,0.824,0.375,0.651,0.610,��,10.2,��
2021/06/03,18:00,0.634,0.944,0.592,1.149,0.825,0.376,0.651,0.608,��,10.0,��
2021/06/03,18:10,0.636,0.943,0.591,1.148,0.822,0.376,0.650,0.610,��,8.9,��
2021/06/03,18:20,0.635,0.945,0.592,1.150,0.823,0.377,0.650,0.609,��,8.7,��
2021/06/03,18:30,0.635,0.942,0.593,1.148,0.826,0.375,0.651,0.610,��,9.3,��
2021/06/03,18:40,0.634,0.944,0.593,1.150,0.823,0.375,0.653,0.609,��,9.3,��
2021/06/03,18:50,0.635,0.944,0.593,1.148,0.825,0.377,0.653,0.611,��,9.3,��
2021/06/03,19:00,0.635,0.942,0.591,1.149,0.824,0.377,0.653,0.608,��,9.9,��
2021/06/03,19:10,0.635,0.946,0.592,1.150,0.824,0.377,0.653,0.611,��,9.2,��
2021/06/03,19:20,0.634,0.945,0.594,1.150,0.826,0.377,0.654,0.611,��,9.7,��
2021/06/03,19:30,0.635,0.947,0.593,1.151,0.823,0.376,0.653,0.609,��,10.3,��
2021/06/03,19:40,0.636,0.947,0.595,1.150,0.825,0.376,0.652,0.610,��,9.7,��
2021/06/03,19:50,0.635,0.944,0.593,1.151,0.825,0.377,0.653,0.609,��,8.7,��
2021/06/03,20:00,0.635,0.945,0.595,1.151,0.824,0.376,0.653,0.612,��,10.2,��
2021/06/03,20:10,0.636,0.945,0.594,1.150,0.827,0.376,0.652,0.609,��,9.4,��
2021/06/03,20:20,0.637,0.943,0.595,1.150,0.824,0.376,0.652,0.611,��,9.4,��
2021/06/03,20:30,0.636,0.945,0.595,1.150,0.824,0.377,0.655,0.610,��,9.2,��
2021/06/03,20:40,0.639,0.945,0.595,1.148,0.825,0.377,0.654,0.609,��,7.5,��
2021/06/03,20:50,0.637,0.945,0.596,1.148,0.825,0.375,0.652,0.610,��,8.0,��
2021/06/03,21:00,0.636,0.946,0.594,1.148,0.825,0.376,0.653,0.611,��,7.0,��
2021/06/03,21:10,0.638,0.946,0.595,1.149,0.825,0.373,0.651,0.609,��,8.3,��
2021/06/03,21:20,0.638,0.945,0.594,1.148,0.826,0.375,0.653,0.610,��,7.8,��
2021/06/03,21:30,0.639,0.947,0.595,1.148,0.825,0.374,0.653,0.611,��,7.4,��
2021/06/03,21:40,0.637,0.946,0.594,1.148,0.826,0.375,0.653,0.610,��,8.0,��
2021/06/03,21:50,0.637,0.947,0.595,1.151,0.826,0.376,0.654,0.609,��,7.9,��
2021/06/03,22:00,0.639,0.948,0.595,1.150,0.829,0.374,0.652,0.611,��,7.0,��
2021/06/03,22:10,0.636,0.946,0.595,1.148,0.828,0.375,0.653,0.610,��,7.8,��
2021/06/03,22:20,0.635,0.948,0.594,1.148,0.827,0.375,0.654,0.610,��,9.7,��
2021/06/03,22:30,0.635,0.947,0.596,1.146,0.827,0.377,0.654,0.610,��,7.7,��
2021/06/03,22:40,0.637,0.948,0.597,1.146,0.826,0.374,0.653,0.609,��,9.1,��
2021/06/03,22:50,0.635,0.946,0.594,1.150,0.826,0.374,0.653,0.609,��,8.8,��
2021/06/03,23:00,0.637,0.946,0.595,1.150,0.825,0.375,0.652,0.609,��,9.3,�L
2021/06/03,23:10,0.636,0.945,0.595,1.151,0.826,0.375,0.653,0.610,��,6.9,�L
2021/06/03,23:20,0.636,0.945,0.595,1.149,0.824,0.375,0.652,0.609,��,9.4,�L
2021/06/03,23:30,0.636,0.945,0.595,1.150,0.824,0.373,0.655,0.611,��,8.4,�L
2021/06/03,23:40,0.634,0.943,0.594,1.148,0.824,0.374,0.652,0.610,��쓌,9.9,�L
2021/06/03,23:50,0.635,0.944,0.594,1.149,0.826,0.374,0.650,0.609,��,9.6,�L
